| time (UTC) | temp F | wind direction | speed MPH | gust MPH | rain 1hr in | rain 24hr in | rain mn in | humidity % | barometer mb |
| 20260510103834 | 50 | 313 | 0.0 | 0.0 | 0.00 | 0.00 | 0.00 | 95 | 1012.8 |
| 20260510102832 | 50 | 313 | 0.0 | 0.0 | 0.00 | 0.00 | 0.00 | 95 | 1012.8 |
| 20260510101832 | 50 | 313 | 0.0 | 0.0 | 0.00 | 0.00 | 0.00 | 95 | 1012.8 |
| 20260510100832 | 51 | 314 | 0.0 | 0.0 | 0.00 | 0.00 | 0.00 | 95 | 1012.8 |
| 20260510095831 | 50 | 314 | 0.0 | 0.0 | 0.00 | 0.00 | 0.00 | 94 | 1012.4 |
| 20260510094826 | 51 | 314 | 1.0 | 1.0 | 0.00 | 0.00 | 0.00 | 94 | 1012.8 |
| 20260510093824 | 51 | 314 | 1.0 | 1.0 | 0.00 | 0.00 | 0.00 | 93 | 1012.4 |
| 20260510092822 | 51 | 314 | 2.0 | 2.0 | 0.00 | 0.00 | 0.00 | 93 | 1012.4 |
| 20260510091820 | 51 | 314 | 2.0 | 2.0 | 0.00 | 0.00 | 0.00 | 94 | 1012.4 |
| 20260510090819 | 51 | 314 | 2.0 | 2.0 | 0.00 | 0.00 | 0.00 | 94 | 1012.4 |
| 20260510085818 | 50 | 314 | 2.0 | 2.0 | 0.00 | 0.00 | 0.00 | 95 | 1012.1 |
| 20260510084814 | 50 | 314 | 0.0 | 0.0 | 0.00 | 0.00 | 0.00 | 94 | 1012.1 |
| 20260510083814 | 50 | 313 | 0.0 | 0.0 | 0.00 | 0.00 | 0.00 | 94 | 1012.4 |
| 20260510082812 | 51 | 313 | 0.0 | 0.0 | 0.00 | 0.00 | 0.00 | 93 | 1012.4 |
| 20260510081808 | 51 | 313 | 0.0 | 0.0 | 0.00 | 0.00 | 0.00 | 93 | 1012.1 |
| 20260510080806 | 51 | 313 | 0.0 | 0.0 | 0.00 | 0.00 | 0.00 | 92 | 1011.8 |
| 20260510075804 | 51 | 313 | 1.0 | 1.0 | 0.00 | 0.00 | 0.00 | 93 | 1011.4 |
| 20260510074804 | 50 | 313 | 1.0 | 1.0 | 0.00 | 0.00 | 0.00 | 94 | 1011.8 |
| 20260510073803 | 50 | 313 | 0.0 | 0.0 | 0.00 | 0.00 | 0.00 | 94 | 1011.8 |
| 20260510072801 | 50 | 313 | 0.0 | 0.0 | 0.00 | 0.00 | 0.00 | 94 | 1011.8 |
| 20260510071800 | 50 | 313 | 1.0 | 1.0 | 0.00 | 0.00 | 0.00 | 94 | 1011.8 |
| 20260510070756 | 50 | 313 | 1.0 | 1.0 | 0.00 | 0.00 | 0.00 | 93 | 1011.8 |
| 20260510065752 | 49 | 312 | 0.0 | 0.0 | 0.00 | 0.00 | 0.00 | 92 | 1011.4 |
| 20260510064751 | 50 | 312 | 0.0 | 0.0 | 0.00 | 0.00 | 0.00 | 91 | 1011.8 |
| 20260510063751 | 50 | 312 | 1.0 | 2.0 | 0.00 | 0.00 | 0.00 | 93 | 1011.4 |
| 20260510062750 | 50 | 312 | 0.0 | 0.0 | 0.00 | 0.00 | 0.00 | 92 | 1011.8 |
| 20260510061747 | 50 | 312 | 1.0 | 1.0 | 0.00 | 0.00 | 0.00 | 91 | 1011.8 |
| 20260510060746 | 51 | 312 | 0.0 | 0.0 | 0.00 | 0.00 | 0.00 | 89 | 1011.8 |
| 20260510055746 | 51 | 312 | 0.0 | 0.0 | 0.00 | 0.00 | 0.00 | 88 | 1011.8 |
| 20260510054743 | 52 | 311 | 0.0 | 0.0 | 0.00 | 0.00 | 0.00 | 86 | 1011.8 |
| 20260510053739 | 53 | 311 | 0.0 | 0.0 | 0.00 | 0.00 | 0.00 | 85 | 1011.8 |
| 20260510052737 | 53 | 311 | 1.0 | 2.0 | 0.00 | 0.00 | 0.00 | 85 | 1011.8 |
| 20260510051735 | 55 | 311 | 1.0 | 1.0 | 0.00 | 0.00 | 0.00 | 82 | 1011.4 |
| 20260510050735 | 55 | 311 | 0.0 | 0.0 | 0.00 | 0.00 | 0.00 | 81 | 1011.8 |
| 20260510045735 | 55 | 311 | 0.0 | 0.0 | 0.00 | 0.00 | 0.00 | 80 | 1011.8 |
| 20260510044734 | 57 | 311 | 0.0 | 0.0 | 0.00 | 0.00 | 0.00 | 77 | 1011.8 |
| 20260510043733 | 58 | 311 | 0.0 | 0.0 | 0.00 | 0.00 | 0.00 | 73 | 1011.8 |
| 20260510042734 | 60 | 309 | 1.0 | 1.0 | 0.00 | 0.00 | 0.00 | 70 | 1011.8 |
| 20260510041732 | 62 | 296 | 1.0 | 1.0 | 0.00 | 0.00 | 0.00 | 67 | 1011.4 |
| 20260510040733 | 64 | 255 | 2.0 | 2.0 | 0.00 | 0.00 | 0.00 | 62 | 1011.1 |
| 20260510035730 | 64 | 284 | 4.0 | 5.0 | 0.00 | 0.00 | 0.00 | 61 | 1011.1 |
| 20260510034728 | 65 | 267 | 4.0 | 5.0 | 0.00 | 0.00 | 0.00 | 59 | 1011.4 |
| 20260510033728 | 64 | 281 | 3.0 | 3.0 | 0.00 | 0.00 | 0.00 | 62 | 1011.4 |
| 20260510032728 | 60 | 279 | 3.0 | 3.0 | 0.00 | 0.00 | 0.00 | 65 | 1011.1 |
| 20260510031725 | 58 | 297 | 1.0 | 1.0 | 0.00 | 0.00 | 0.00 | 74 | 1011.1 |
| 20260510030720 | 58 | 270 | 1.0 | 1.0 | 0.00 | 0.00 | 0.00 | 72 | 1011.1 |
| 20260510025716 | 59 | 274 | 0.0 | 0.0 | 0.00 | 0.00 | 0.00 | 71 | 1011.1 |
| 20260510024716 | 61 | 280 | 0.0 | 1.0 | 0.00 | 0.00 | 0.00 | 67 | 1011.1 |
| 20260510023714 | 63 | 283 | 3.0 | 3.0 | 0.00 | 0.00 | 0.00 | 61 | 1011.1 |
| 20260510022713 | 62 | 308 | 1.0 | 1.0 | 0.00 | 0.00 | 0.00 | 65 | 1010.8 |
| 20260510021708 | 58 | 313 | 5.0 | 6.0 | 0.00 | 0.00 | 0.00 | 65 | 1011.1 |
| 20260510020707 | 56 | 306 | 2.0 | 2.0 | 0.00 | 0.00 | 0.00 | 78 | 1010.8 |
| 20260510015704 | 57 | 306 | 2.0 | 2.0 | 0.00 | 0.00 | 0.00 | 78 | 1010.8 |
| 20260510014701 | 56 | 306 | 0.0 | 0.0 | 0.00 | 0.00 | 0.00 | 77 | 1010.4 |
| 20260510013659 | 57 | 306 | 0.0 | 0.0 | 0.00 | 0.00 | 0.00 | 78 | 1010.1 |
| 20260510012655 | 58 | 306 | 1.0 | 2.0 | 0.00 | 0.00 | 0.00 | 77 | 1010.1 |
| 20260510011652 | 59 | 306 | 0.0 | 0.0 | 0.00 | 0.00 | 0.00 | 74 | 1010.1 |
| 20260510010650 | 60 | 304 | 1.0 | 1.0 | 0.00 | 0.00 | 0.00 | 72 | 1009.6 |
| 20260510005649 | 60 | 303 | 0.0 | 0.0 | 0.00 | 0.00 | 0.00 | 68 | 1009.3 |
| 20260510004644 | 60 | 303 | 1.0 | 1.0 | 0.00 | 0.00 | 0.00 | 71 | 1009.3 |
| 20260510003639 | 60 | 302 | 2.0 | 2.0 | 0.00 | 0.00 | 0.00 | 75 | 1009.3 |
| 20260510002635 | 61 | 303 | 2.0 | 2.0 | 0.00 | 0.00 | 0.00 | 74 | 1009.0 |
| 20260510001634 | 64 | 306 | 2.0 | 2.0 | 0.00 | 0.00 | 0.00 | 68 | 1009.0 |
| 20260510000633 | 68 | 296 | 2.0 | 2.0 | 0.00 | 0.00 | 0.00 | 55 | 1009.0 |
| 20260509235632 | 70 | 281 | 1.0 | 2.0 | 0.00 | 0.00 | 0.00 | 52 | 1008.6 |
| 20260509234631 | 71 | 293 | 0.0 | 1.0 | 0.00 | 0.00 | 0.00 | 51 | 1008.3 |
| 20260509233626 | 72 | 303 | 3.0 | 3.0 | 0.00 | 0.00 | 0.00 | 48 | 1008.3 |
| 20260509232625 | 73 | 286 | 2.0 | 2.0 | 0.00 | 0.00 | 0.00 | 49 | 1008.3 |
| 20260509231625 | 75 | 307 | 3.0 | 3.0 | 0.00 | 0.00 | 0.00 | 49 | 1008.3 |
| 20260509230625 | 75 | 293 | 2.0 | 2.0 | 0.00 | 0.00 | 0.00 | 49 | 1008.3 |
| 20260509225623 | 75 | 274 | 3.0 | 3.0 | 0.00 | 0.00 | 0.00 | 47 | 1007.9 |
| 20260509224620 | 74 | 282 | 1.0 | 1.0 | 0.00 | 0.00 | 0.00 | 49 | 1007.9 |
| 20260509223620 | 74 | 286 | 1.0 | 1.0 | 0.00 | 0.00 | 0.00 | 50 | 1008.3 |
| 20260509222619 | 75 | 290 | 3.0 | 3.0 | 0.00 | 0.00 | 0.00 | 47 | 1008.3 |
| 20260509221617 | 75 | 274 | 4.0 | 5.0 | 0.00 | 0.00 | 0.00 | 49 | 1008.3 |
| 20260509220615 | 74 | 292 | 2.0 | 2.0 | 0.00 | 0.00 | 0.00 | 55 | 1008.3 |
| 20260509215614 | 73 | 278 | 0.0 | 0.0 | 0.00 | 0.00 | 0.00 | 58 | 1007.9 |
| 20260509214614 | 73 | 255 | 2.0 | 2.0 | 0.00 | 0.00 | 0.00 | 56 | 1007.9 |
| 20260509213612 | 73 | 274 | 1.0 | 2.0 | 0.00 | 0.00 | 0.00 | 55 | 1007.9 |
| 20260509212612 | 73 | 279 | 0.0 | 1.0 | 0.00 | 0.00 | 0.00 | 55 | 1007.9 |
| 20260509211611 | 73 | 273 | 3.0 | 3.0 | 0.00 | 0.00 | 0.00 | 55 | 1007.9 |
| 20260509210610 | 73 | 258 | 2.0 | 3.0 | 0.00 | 0.00 | 0.00 | 55 | 1007.9 |
| 20260509205608 | 74 | 274 | 0.0 | 1.0 | 0.00 | 0.00 | 0.00 | 54 | 1007.6 |
| 20260509204605 | 73 | 281 | 1.0 | 1.0 | 0.00 | 0.00 | 0.00 | 56 | 1007.9 |
| 20260509203604 | 73 | 253 | 3.0 | 5.0 | 0.00 | 0.00 | 0.00 | 55 | 1007.6 |
| 20260509202602 | 73 | 291 | 0.0 | 0.0 | 0.00 | 0.00 | 0.00 | 53 | 1007.9 |
| 20260509201558 | 73 | 267 | 2.0 | 3.0 | 0.00 | 0.00 | 0.00 | 57 | 1007.6 |
| 20260509200556 | 73 | 268 | 1.0 | 1.0 | 0.00 | 0.00 | 0.00 | 58 | 1007.6 |
| 20260509195554 | 75 | 316 | 3.0 | 3.0 | 0.00 | 0.00 | 0.00 | 54 | 1007.9 |
| 20260509194554 | 74 | 276 | 2.0 | 2.0 | 0.00 | 0.00 | 0.00 | 54 | 1007.6 |
| 20260509193554 | 75 | 281 | 1.0 | 1.0 | 0.00 | 0.00 | 0.00 | 54 | 1007.9 |
| 20260509192553 | 74 | 262 | 3.0 | 3.0 | 0.00 | 0.00 | 0.00 | 54 | 1007.9 |
| 20260509191548 | 74 | 324 | 2.0 | 2.0 | 0.00 | 0.00 | 0.00 | 55 | 1008.3 |
| 20260509190547 | 74 | 262 | 5.0 | 7.0 | 0.00 | 0.00 | 0.00 | 53 | 1008.3 |
| 20260509185542 | 71 | 268 | 1.0 | 1.0 | 0.00 | 0.00 | 0.00 | 60 | 1008.3 |
| 20260509184537 | 72 | 67 | 3.0 | 3.0 | 0.00 | 0.00 | 0.00 | 59 | 1008.3 |
| 20260509183534 | 71 | 331 | 2.0 | 3.0 | 0.00 | 0.00 | 0.00 | 61 | 1008.6 |
| 20260509182532 | 73 | 256 | 3.0 | 6.0 | 0.00 | 0.00 | 0.00 | 59 | 1009.0 |
| 20260509181528 | 72 | 72 | 5.0 | 6.0 | 0.00 | 0.00 | 0.00 | 59 | 1009.0 |
| 20260509180526 | 70 | 277 | 3.0 | 5.0 | 0.00 | 0.00 | 0.00 | 63 | 1009.3 |
| 20260509175525 | 69 | 272 | 0.0 | 0.0 | 0.00 | 0.00 | 0.00 | 66 | 1009.3 |
| 20260509174524 | 70 | 275 | 1.0 | 1.0 | 0.00 | 0.00 | 0.00 | 64 | 1009.3 |
| 20260509173520 | 69 | 281 | 1.0 | 1.0 | 0.00 | 0.00 | 0.00 | 63 | 1009.3 |
| 20260509172520 | 71 | 249 | 5.0 | 6.0 | 0.00 | 0.00 | 0.00 | 62 | 1009.6 |
| 20260509171517 | 71 | 297 | 2.0 | 3.0 | 0.00 | 0.00 | 0.00 | 64 | 1009.3 |
| 20260509170515 | 69 | 268 | 2.0 | 2.0 | 0.00 | 0.00 | 0.00 | 67 | 1009.3 |
| 20260509165510 | 68 | 297 | 1.0 | 1.0 | 0.00 | 0.00 | 0.00 | 65 | 1010.1 |
| 20260509164508 | 68 | 255 | 2.0 | 5.0 | 0.00 | 0.00 | 0.00 | 67 | 1010.4 |
| 20260509163508 | 67 | 280 | 0.0 | 0.0 | 0.00 | 0.00 | 0.00 | 68 | 1010.4 |
| 20260509162505 | 68 | 276 | 3.0 | 3.0 | 0.00 | 0.00 | 0.00 | 68 | 1010.1 |
| 20260509161504 | 66 | 258 | 3.0 | 3.0 | 0.00 | 0.00 | 0.00 | 72 | 1010.1 |
| 20260509160501 | 68 | 86 | 1.0 | 5.0 | 0.00 | 0.00 | 0.00 | 68 | 1010.4 |
| 20260509155458 | 66 | 309 | 2.0 | 2.0 | 0.00 | 0.00 | 0.00 | 69 | 1010.4 |
| 20260509154456 | 67 | 57 | 4.0 | 5.0 | 0.00 | 0.00 | 0.00 | 66 | 1010.8 |
| 20260509153456 | 65 | 268 | 1.0 | 1.0 | 0.00 | 0.00 | 0.00 | 69 | 1011.1 |
| 20260509152455 | 65 | 13 | 3.0 | 3.0 | 0.00 | 0.00 | 0.00 | 68 | 1010.8 |
| 20260509151454 | 64 | 336 | 2.0 | 2.0 | 0.00 | 0.00 | 0.00 | 70 | 1011.1 |
| 20260509150455 | 63 | 268 | 1.0 | 1.0 | 0.00 | 0.00 | 0.00 | 69 | 1010.8 |
| 20260509145454 | 63 | 263 | 1.0 | 2.0 | 0.00 | 0.00 | 0.00 | 68 | 1010.8 |
| 20260509144453 | 62 | 234 | 2.0 | 2.0 | 0.00 | 0.00 | 0.00 | 70 | 1011.1 |
| 20260509143452 | 62 | 280 | 1.0 | 1.0 | 0.00 | 0.00 | 0.00 | 70 | 1011.4 |
| 20260509142452 | 61 | 261 | 0.0 | 1.0 | 0.00 | 0.00 | 0.00 | 73 | 1011.1 |
| 20260509141449 | 60 | 261 | 0.0 | 0.0 | 0.00 | 0.00 | 0.00 | 74 | 1011.1 |
| 20260509140448 | 60 | 261 | 0.0 | 1.0 | 0.00 | 0.00 | 0.00 | 74 | 1011.1 |
| 20260509135444 | 61 | 262 | 0.0 | 0.0 | 0.00 | 0.00 | 0.00 | 72 | 1010.4 |
| 20260509134439 | 59 | 276 | 1.0 | 2.0 | 0.00 | 0.00 | 0.00 | 73 | 1011.1 |
| 20260509133438 | 59 | 276 | 0.0 | 0.0 | 0.00 | 0.00 | 0.00 | 72 | 1011.4 |
| 20260509132434 | 58 | 279 | 1.0 | 1.0 | 0.00 | 0.00 | 0.00 | 72 | 1011.8 |
| 20260509131434 | 57 | 280 | 0.0 | 0.0 | 0.00 | 0.00 | 0.00 | 74 | 1011.8 |
| 20260509130432 | 57 | 279 | 0.0 | 0.0 | 0.00 | 0.00 | 0.00 | 75 | 1011.8 |
| 20260509125432 | 56 | 271 | 0.0 | 0.0 | 0.00 | 0.00 | 0.00 | 78 | 1011.8 |
| 20260509124431 | 55 | 269 | 1.0 | 1.0 | 0.00 | 0.00 | 0.00 | 81 | 1011.8 |
| 20260509123426 | 53 | 269 | 0.0 | 1.0 | 0.00 | 0.00 | 0.00 | 86 | 1012.1 |
| 20260509122425 | 52 | 279 | 0.0 | 0.0 | 0.00 | 0.00 | 0.00 | 88 | 1011.8 |
| 20260509121424 | 51 | 279 | 0.0 | 0.0 | 0.00 | 0.00 | 0.00 | 89 | 1011.8 |
| 20260509120419 | 50 | 279 | 0.0 | 0.0 | 0.00 | 0.00 | 0.00 | 90 | 1011.8 |
| 20260509115414 | 49 | 279 | 0.0 | 1.0 | 0.00 | 0.00 | 0.00 | 91 | 1012.1 |
| 20260509114410 | 48 | 279 | 0.0 | 0.0 | 0.00 | 0.00 | 0.00 | 92 | 1012.1 |
| 20260509113406 | 48 | 279 | 0.0 | 0.0 | 0.00 | 0.00 | 0.00 | 93 | 1012.1 |
| 20260509112406 | 46 | 278 | 0.0 | 0.0 | 0.00 | 0.00 | 0.00 | 94 | 1011.8 |
| 20260509111405 | 46 | 279 | 1.0 | 2.0 | 0.00 | 0.00 | 0.00 | 95 | 1012.1 |
| 20260509110405 | 45 | 279 | 0.0 | 0.0 | 0.00 | 0.00 | 0.00 | 95 | 1011.8 |
| 20260509105402 | 45 | 280 | 2.0 | 2.0 | 0.00 | 0.00 | 0.00 | 96 | 1011.4 |